Rochester/St. Mary\'s Hospita, MN

1:44 AM CDT on June 22, 2018 (GMT -0500)
Rochester/St. Mary\'s Hospita

Weather History for K9MN - October, 2017

Change the Weather History Date:

Sunday, October 1, 2017

  Actual Average (KRST) Record (KRST)
Temperature  
Mean Temperature 61 °F -  
Max Temperature 68 °F 67 °F 88 °F (1976)
Min Temperature 54 °F 43 °F 21 °F (1920)
Degree Days  
Heating Degree Days 4    
Growing Degree Days 11 (Base 50)    
Moisture  
Dew Point 44 °F    
Average Humidity 57    
Maximum Humidity 85    
Minimum Humidity 39    
Precipitation  
Precipitation 0.24 in - - ()
Sea Level Pressure  
Sea Level Pressure 30.03 in    
Wind  
Wind Speed 11 mph (SE)    
Max Wind Speed 22 mph    
Max Gust Speed 30 mph    
Visibility 10 miles    
Events      
Averages and records for this station are not official NWS values.
T = Trace of Precipitation, MM = Missing Value Source: NWS Daily Summary

Daily Weather History Graph

Daily Weather History Graph

Search for Another Location

Airport or City:

Astronomy

Oct. 01, 2017 Rise Set
Actual Time 7:07 AM CDT 6:50 PM CDT
Civil Twilight 6:39 AM CDT 7:18 PM CDT
Nautical Twilight 6:05 AM CDT 7:52 PM CDT
Astronomical Twilight 5:31 AM CDT 8:26 PM CDT
Moon 4:59 PM CDT (10/1) 2:28 AM CDT (10/1)
Length of Visible Light 12h 39m
Length of Day
11h 42m
Waxing Gibbous, 82% of the Moon is Illuminated
Oct 1
Waxing Gibbous
Oct 5
Full
Oct 12
Last Quarter
Oct 19
New
Oct 27
First Quarter

Hourly Weather History & Observations

Time (CDT) Temp. Dew Point Humidity Pressure Visibility Wind Dir Wind Speed Gust Speed Precip Events Conditions
12:12 AM 58.1 °F 43.9 °F 59% 30.18 in 10.0 mi SE 10.4 mph 16.1 mph N/A   Mostly Cloudy
12:31 AM 58.8 °F 42.8 °F 55% 30.18 in 10.0 mi SE 12.7 mph 18.4 mph N/A   Overcast
12:52 AM 59.0 °F 42.3 °F 54% 30.18 in 10.0 mi SE 9.2 mph 16.1 mph N/A   Overcast
1:12 AM 59.0 °F 41.9 °F 53% 30.18 in 10.0 mi SE 8.1 mph 16.1 mph N/A   Overcast
1:31 AM 58.6 °F 41.5 °F 53% 30.18 in 10.0 mi SE 9.2 mph - N/A   Overcast
1:52 AM 58.6 °F 40.8 °F 52% 30.17 in 10.0 mi SE 9.2 mph - N/A   Overcast
2:12 AM 58.6 °F 40.3 °F 51% 30.17 in 10.0 mi SE 9.2 mph - N/A   Overcast
2:52 AM 58.6 °F 39.9 °F 50% 30.15 in 10.0 mi SE 9.2 mph 16.1 mph N/A   Overcast
3:12 AM 58.5 °F 40.1 °F 51% 30.15 in 10.0 mi SE 5.8 mph - N/A   Overcast
3:31 AM 58.3 °F 40.1 °F 51% 30.14 in 10.0 mi ESE 10.4 mph - N/A   Overcast
3:52 AM 58.1 °F 39.7 °F 50% 30.14 in 10.0 mi SE 6.9 mph 18.4 mph N/A   Overcast
4:12 AM 57.9 °F 39.6 °F 50% 30.14 in 10.0 mi SE 10.4 mph 16.1 mph N/A   Overcast
4:31 AM 57.6 °F 39.9 °F 52% 30.13 in 10.0 mi SE 10.4 mph 17.3 mph N/A   Overcast
4:52 AM 56.1 °F 41.0 °F 57% 30.13 in 10.0 mi ESE 9.2 mph - N/A   Mostly Cloudy
5:12 AM 55.2 °F 41.0 °F 59% 30.12 in 10.0 mi SE 10.4 mph 16.1 mph N/A   Mostly Cloudy
5:31 AM 54.5 °F 41.0 °F 60% 30.11 in 10.0 mi ESE 11.5 mph 16.1 mph N/A   Overcast
5:52 AM 54.5 °F 40.5 °F 59% 30.10 in 10.0 mi SE 10.4 mph 17.3 mph N/A   Overcast
6:12 AM 54.5 °F 40.3 °F 59% 30.09 in 10.0 mi ESE 11.5 mph 18.4 mph N/A   Mostly Cloudy
6:32 AM 54.7 °F 40.1 °F 58% 30.08 in 10.0 mi ESE 12.7 mph 18.4 mph N/A   Mostly Cloudy
6:52 AM 54.9 °F 40.1 °F 58% 30.08 in 10.0 mi SE 10.4 mph 18.4 mph N/A   Scattered Clouds
7:12 AM 54.7 °F 39.9 °F 58% 30.08 in 10.0 mi SE 10.4 mph 17.3 mph N/A   Scattered Clouds
7:32 AM 54.7 °F 40.1 °F 58% 30.09 in 10.0 mi SE 10.4 mph - N/A   Scattered Clouds
7:52 AM 54.9 °F 40.3 °F 58% 30.09 in 10.0 mi ESE 8.1 mph - N/A   Scattered Clouds
8:12 AM 55.6 °F 40.3 °F 56% 30.08 in 10.0 mi SE 9.2 mph 17.3 mph N/A   Clear
8:32 AM 55.9 °F 40.6 °F 56% 30.07 in 10.0 mi SE 10.4 mph - N/A   Clear
8:52 AM 56.8 °F 40.6 °F 55% 30.07 in 10.0 mi SE 13.8 mph 18.4 mph N/A   Scattered Clouds
9:12 AM 57.4 °F 40.8 °F 54% 30.06 in 10.0 mi SE 11.5 mph 18.4 mph N/A   Scattered Clouds
9:32 AM 59.0 °F 41.0 °F 51% 30.05 in 10.0 mi SE 10.4 mph 18.4 mph N/A   Scattered Clouds
9:52 AM 59.9 °F 41.0 °F 50% 30.05 in 10.0 mi SE 18.4 mph 24.2 mph N/A   Scattered Clouds
10:12 AM 60.3 °F 41.4 °F 50% 30.04 in 10.0 mi SE 13.8 mph 21.9 mph N/A   Mostly Cloudy
10:32 AM 61.7 °F 41.4 °F 47% 30.05 in 10.0 mi SSE 10.4 mph 25.3 mph N/A   Scattered Clouds
10:52 AM 61.3 °F 41.9 °F 49% 30.04 in 10.0 mi SE 13.8 mph 20.7 mph N/A   Mostly Cloudy
11:12 AM 62.1 °F 41.9 °F 48% 30.04 in 10.0 mi SE 13.8 mph 23.0 mph N/A   Mostly Cloudy
11:32 AM 63.0 °F 42.1 °F 46% 30.04 in 10.0 mi SSE 9.2 mph 17.3 mph N/A   Scattered Clouds
11:52 AM 64.0 °F 42.3 °F 45% 30.04 in 10.0 mi SSE 9.2 mph 18.4 mph N/A   Scattered Clouds
12:11 PM 65.3 °F 42.1 °F 43% 30.03 in 10.0 mi SSE 12.7 mph 17.3 mph N/A   Scattered Clouds
12:32 PM 66.9 °F 41.9 °F 40% 30.02 in 10.0 mi SSE 13.8 mph 23.0 mph N/A   Scattered Clouds
12:52 PM 68.0 °F 42.1 °F 39% 30.04 in 10.0 mi SSE 16.1 mph 27.6 mph N/A   Scattered Clouds
1:12 PM 68.0 °F 42.1 °F 39% 30.03 in 10.0 mi South 17.3 mph 24.2 mph N/A   Scattered Clouds
1:32 PM 68.0 °F 42.3 °F 39% 30.01 in 10.0 mi SSE 17.3 mph 27.6 mph N/A   Scattered Clouds
1:52 PM 67.5 °F 42.4 °F 40% 30.01 in 10.0 mi SSE 15.0 mph 24.2 mph N/A   Scattered Clouds
2:11 PM 67.1 °F 43.3 °F 42% 30.01 in 10.0 mi SSE 9.2 mph 17.3 mph N/A   Mostly Cloudy
2:32 PM 63.1 °F 47.3 °F 56% 29.99 in 10.0 mi SE 13.8 mph 21.9 mph N/A   Overcast
2:52 PM 60.4 °F 49.1 °F 66% 29.99 in 10.0 mi SE 11.5 mph 18.4 mph 0.02 in   Overcast
3:11 PM 60.1 °F 50.0 °F 69% 29.98 in 10.0 mi SE 11.5 mph - 0.01 in   Overcast
3:32 PM 59.5 °F 50.9 °F 73% 29.98 in 10.0 mi SE 11.5 mph 16.1 mph 0.03 in   Overcast
3:52 PM 58.6 °F 52.0 °F 79% 29.97 in 7.0 mi SE 18.4 mph 23.0 mph 0.07 in   Overcast
4:11 PM 57.6 °F 52.9 °F 84% 29.94 in 7.0 mi ESE 17.3 mph 26.5 mph 0.05 in   Overcast
4:32 PM 57.2 °F 52.9 °F 85% 29.90 in 10.0 mi ESE 21.9 mph 29.9 mph 0.12 in   Overcast
4:52 PM 58.3 °F 52.0 °F 80% 29.94 in 10.0 mi SE 13.8 mph 20.7 mph 0.13 in   Overcast
5:11 PM 58.5 °F 51.1 °F 76% 29.94 in 10.0 mi SE 13.8 mph 23.0 mph 0.01 in   Overcast
5:32 PM 57.9 °F 52.2 °F 81% 29.93 in 10.0 mi SE 13.8 mph 20.7 mph 0.02 in   Overcast
5:52 PM 58.5 °F 52.0 °F 79% 29.94 in 10.0 mi SE 11.5 mph 19.6 mph 0.02 in   Mostly Cloudy
6:11 PM 58.6 °F 51.8 °F 78% 29.94 in 10.0 mi SE 10.4 mph - N/A   Overcast
6:32 PM 59.0 °F 51.4 °F 76% 29.93 in 10.0 mi ESE 9.2 mph - N/A   Overcast
6:52 PM 59.0 °F 51.3 °F 75% 29.93 in 10.0 mi ESE 12.7 mph - N/A   Mostly Cloudy
7:11 PM 59.4 °F 50.0 °F 71% 29.93 in 10.0 mi ESE 13.8 mph 18.4 mph N/A   Mostly Cloudy
7:32 PM 59.4 °F 49.8 °F 71% 29.94 in 10.0 mi ESE 12.7 mph 19.6 mph N/A   Mostly Cloudy
7:52 PM 59.9 °F 49.3 °F 68% 29.96 in 10.0 mi SE 5.8 mph - N/A   Overcast
8:12 PM 59.9 °F 48.6 °F 66% 29.95 in 10.0 mi ESE 11.5 mph 16.1 mph N/A   Overcast
8:32 PM 59.9 °F 47.5 °F 64% 29.95 in 10.0 mi ESE 13.8 mph 18.4 mph N/A   Overcast
8:52 PM 60.3 °F 46.2 °F 60% 29.94 in 10.0 mi SE 13.8 mph 19.6 mph N/A   Overcast
9:12 PM 60.3 °F 45.1 °F 57% 29.95 in 10.0 mi SE 15.0 mph 20.7 mph N/A   Overcast
9:32 PM 60.4 °F 44.6 °F 56% 29.95 in 10.0 mi ESE 15.0 mph 20.7 mph N/A   Overcast
9:52 PM 60.6 °F 44.1 °F 54% 29.95 in 10.0 mi ESE 12.7 mph 16.1 mph N/A   Overcast
10:12 PM 60.4 °F 43.7 °F 54% 29.94 in 10.0 mi ESE 12.7 mph 19.6 mph N/A   Overcast
10:32 PM 60.8 °F 43.0 °F 52% 29.95 in 10.0 mi SE 13.8 mph 21.9 mph N/A   Scattered Clouds
10:52 PM 60.8 °F 41.9 °F 50% 29.95 in 10.0 mi SE 12.7 mph 20.7 mph N/A   Scattered Clouds
11:12 PM 60.8 °F 41.4 °F 49% 29.95 in 10.0 mi SE 12.7 mph 18.4 mph N/A   Overcast
11:32 PM 60.4 °F 41.2 °F 49% 29.95 in 10.0 mi SE 9.2 mph - N/A   Mostly Cloudy
11:52 PM 60.8 °F 41.0 °F 48% 29.95 in 7.0 mi SE 13.8 mph 19.6 mph N/A   Overcast